Wind_Speed
15 15 15 15 15 15 15 16 16 17 18 19 20 21 22 23 24 25 26 26 27 27 27 27 27 27 27 27 27 28 28 28 28 28 29 29 29 30 30 30 30 30
15 15 16 16 16 16 16 16 17 18 19 20 21 23 24 25 26 27 28 29 29 29 29 29 29 28 28 28 28 29 29 29 29 30 30 30 30 31 31 31 31 31
16 16 16 16 17 17 17 18 18 19 20 21 23 24 26 27 28 29 30 30 30 30 30 30 30 30 30 30 30 30 30 31 31 31 32 32 32 32 32 32 33 33
18 17 17 17 18 19 19 19 20 20 22 23 24 26 27 29 30 30 31 31 31 31 31 31 31 31 32 32 32 32 33 33 33 33 33 33 33 33 33 34 34 34
18 18 18 18 19 20 20 21 21 22 23 24 25 27 28 30 31 32 32 32 32 32 32 32 32 33 33 33 34 34 34 35 35 35 35 35 35 35 34 34 35 35
18 19 19 20 21 22 22 22 23 24 24 26 27 28 30 31 32 32 33 33 32 33 33 34 34 34 34 34 35 35 35 36 36 36 36 37 37 36 36 36 36 36
19 20 20 21 22 23 23 24 24 25 26 27 29 30 31 32 32 33 33 33 34 34 35 35 34 34 34 35 35 36 36 36 37 37 37 37 38 38 37 37 38 38
20 21 21 22 23 24 25 25 26 27 28 29 31 32 32 33 34 34 33 34 35 35 35 35 35 34 34 35 35 35 36 36 37 37 38 38 38 39 39 39 39 39
21 21 22 23 24 25 26 27 28 29 30 31 33 34 34 35 35 34 34 35 35 36 36 35 35 34 34 34 35 35 36 36 37 37 38 38 39 39 39 40 40 40
22 22 23 24 26 27 27 28 29 31 32 33 34 35 36 36 36 35 35 36 36 36 35 35 34 34 35 35 35 36 37 37 38 38 38 38 39 39 40 40 40 41
24 24 25 26 27 28 29 30 31 32 33 34 36 37 37 37 36 35 36 37 37 36 35 35 35 35 35 36 36 37 37 37 38 38 38 39 39 40 40 40 41 41
25 26 26 28 29 29 30 31 32 33 34 35 37 38 38 37 36 36 37 37 36 35 35 35 35 35 36 36 36 37 37 38 38 38 39 39 40 40 41 42 42 42
26 27 28 29 30 30 31 32 33 34 35 36 37 38 37 36 36 37 37 37 36 35 35 35 36 36 36 37 37 37 38 38 39 40 40 41 42 42 43 44 44 45
27 28 29 30 31 31 32 33 34 35 36 37 37 37 37 36 37 37 37 36 36 36 36 36 36 36 37 38 38 39 39 40 40 41 42 43 44 44 45 46 46 47
27 28 30 31 32 32 33 33 34 36 36 37 37 37 37 36 37 37 37 36 36 36 36 37 37 37 37 38 38 39 40 40 41 42 43 43 44 45 45 46 46 47
28 29 31 32 32 33 33 34 35 36 36 37 37 37 36 36 37 37 37 37 37 37 37 38 38 38 38 38 39 40 40 41 42 42 43 43 43 43 44 45 45 46
29 31 32 32 33 33 34 35 36 36 37 37 37 36 36 36 36 36 36 36 37 37 38 38 38 38 39 40 41 41 42 42 42 42 42 42 42 42 43 43 44 45
31 32 33 33 34 34 35 36 36 36 37 36 35 35 35 35 35 36 36 36 37 38 38 38 39 39 40 41 41 42 42 41 41 41 41 41 42 42 43 44 44 45
33 34 34 34 35 35 36 37 36 36 36 35 34 34 34 34 35 35 36 36 37 37 37 38 39 40 41 42 42 41 41 41 41 42 42 42 43 44 44 45 45 46
34 35 35 35 36 37 36 36 35 34 33 33 33 34 33 33 34 34 35 36 36 36 37 38 40 41 41 41 41 41 41 41 42 43 44 44 45 45 46 46 46 47
37 36 36 36 37 37 36 34 32 31 32 32 33 33 32 32 33 33 34 34 35 36 38 39 40 40 40 40 40 40 41 42 43 44 44 45 45 46 46 46 46 47
39 37 36 36 36 35 32 30 29 30 31 32 31 31 31 32 32 32 33 33 35 37 38 39 39 39 38 39 39 40 41 42 43 43 44 44 44 45 45 46 46 46
39 37 35 34 32 30 27 27 28 29 30 30 30 30 31 31 31 31 32 34 36 37 37 37 37 37 37 38 39 40 41 41 42 42 42 42 43 43 44 45 45 46
36 33 31 28 26 24 25 26 28 28 28 29 29 29 29 29 30 31 33 34 35 36 36 36 36 36 37 38 39 40 40 40 40 40 40 40 41 42 43 43 45 45
27 25 24 22 22 24 25 26 26 27 27 28 28 28 28 29 30 32 33 34 35 35 35 35 35 36 37 38 38 38 38 38 38 38 39 39 40 41 41 42 42 43
21 21 21 22 23 24 25 25 25 26 26 27 27 27 28 30 31 32 33 34 34 34 35 35 36 36 37 37 37 37 37 36 36 37 38 38 39 40 40 40 40 41
Wind_Direction
265 267 269 269 270 274 279 284 289 292 295 299 301 303 304 304 304 304 304 304 304 304 304 304 304 304 303 303 303 303 302 301 300 299 299 299 298 298 298 299 299 300
262 266 269 271 272 275 278 282 287 290 294 297 299 301 303 304 304 305 305 305 304 304 303 303 303 302 303 303 303 303 302 301 300 299 298 298 297 297 297 297 297 297
261 265 269 273 274 276 278 281 285 288 292 295 297 299 302 304 305 305 305 305 303 302 302 301 301 301 302 302 302 302 301 301 300 299 298 298 297 297 297 297 296 296
262 266 270 274 276 277 279 282 285 288 290 293 295 298 301 302 303 304 304 303 302 301 300 300 301 301 301 301 301 300 299 298 298 297 297 296 296 296 296 296 296 295
265 268 272 275 278 279 282 284 286 289 291 294 297 299 300 301 302 303 303 303 301 300 300 300 301 301 301 301 300 299 298 297 296 295 295 295 295 295 295 295 295 294
267 270 274 277 279 282 285 286 289 291 293 296 298 300 301 301 302 303 303 303 302 302 301 301 301 301 300 300 299 298 298 297 296 295 294 294 294 295 295 294 294 294
267 271 274 278 281 284 287 288 291 294 296 298 300 301 301 302 303 304 303 303 304 304 304 303 302 302 301 300 299 299 298 298 297 296 295 294 293 293 293 292 292 292
266 270 274 279 283 285 288 290 293 295 297 299 300 301 302 304 305 304 304 304 305 306 305 304 303 303 302 301 300 300 299 298 297 296 295 294 293 292 292 291 290 290
267 272 276 280 283 286 288 291 293 295 297 299 301 302 303 305 305 305 305 306 307 307 307 306 305 304 303 302 301 300 299 298 296 295 294 293 292 291 291 290 289 288
269 274 277 280 283 286 288 290 292 295 297 299 301 303 304 305 306 305 306 307 308 308 307 307 306 305 304 303 302 300 299 298 296 295 294 293 292 291 290 289 288 287
270 274 277 279 282 285 287 289 292 294 297 299 301 303 305 306 305 305 307 308 308 307 307 306 305 305 303 302 301 300 299 298 296 295 294 293 292 291 290 289 288 287
270 273 275 277 280 282 285 288 291 294 297 299 302 304 305 305 305 305 306 306 306 306 306 306 305 304 303 302 301 300 299 299 298 297 296 295 295 294 293 292 290 289
270 272 273 275 278 280 284 288 290 293 297 300 302 304 305 305 305 305 305 305 306 307 306 306 305 304 304 303 302 302 302 301 301 300 299 298 297 296 295 294 293 292
270 270 271 274 276 280 283 287 290 293 296 300 302 304 305 305 304 305 305 306 307 307 306 306 305 305 305 305 304 304 303 303 302 301 300 299 298 297 296 295 294 293
269 269 270 272 275 279 282 285 289 293 296 299 302 303 303 303 304 304 306 307 307 307 306 305 305 305 305 305 304 303 303 302 301 300 299 298 297 296 295 294 293 292
269 268 270 272 275 278 281 285 288 291 295 299 301 301 302 302 303 305 307 307 307 306 305 305 305 305 304 304 303 303 303 302 301 300 298 297 296 295 294 293 292 292
268 268 269 271 273 277 280 284 287 290 294 297 299 300 300 302 304 306 307 307 306 305 305 305 305 305 305 305 305 304 304 302 301 300 298 297 296 296 295 295 294 293
265 265 267 269 272 276 279 282 286 290 294 296 297 298 300 302 305 306 306 306 305 305 306 306 306 306 306 306 306 305 304 303 302 301 300 300 299 298 298 297 297 296
263 263 265 268 270 274 277 280 285 290 292 294 296 298 301 304 305 306 305 305 305 305 306 306 306 307 307 307 307 306 306 305 304 304 303 303 302 302 301 300 300 299
259 260 262 265 268 271 275 280 285 288 291 293 296 299 302 304 304 305 304 305 305 305 306 307 307 308 308 308 308 308 307 307 307 306 306 306 305 305 305 304 303 303
254 254 257 260 264 269 274 280 284 287 290 293 297 300 302 303 303 303 304 304 305 305 307 308 309 309 309 309 309 309 309 308 308 308 308 308 308 308 307 306 306 305
251 249 252 257 263 269 275 280 284 288 291 294 298 300 301 302 302 302 303 303 305 307 308 309 309 309 309 309 310 309 310 310 310 310 310 310 310 310 309 309 308 307
250 250 255 261 267 272 278 283 286 289 293 295 298 300 300 300 300 301 302 304 306 308 309 309 309 309 309 309 310 310 310 311 312 312 313 313 313 313 313 312 312 311
254 257 262 267 273 278 283 286 288 291 294 296 298 298 298 299 300 302 304 306 308 308 308 308 308 309 309 309 310 311 312 313 314 315 315 316 316 316 317 317 316 316
260 264 268 274 279 283 285 287 290 292 295 296 296 296 297 299 301 304 306 307 307 308 308 308 308 308 309 310 311 313 314 315 316 317 317 319 320 320 321 320 320 319
266 270 276 280 282 284 286 289 291 293 294 294 294 296 298 301 303 306 306 307 307 307 307 307 307 308 310 312 313 314 315 316 318 319 320 322 323 323 323 322 322 323
Height
5812 5812 5812 5812 5812 5812 5812 5812 5812 5812 5812 5811 5811 5810 5809 5809 5808 5807 5806 5805 5804 5803 5802 5800 5799 5798 5796 5795 5794 5792 5791 5789 5788 5786 5785 5784 5782 5781 5780 5779 5777 5776
5810 5810 5810 5810 5811 5811 5811 5810 5810 5810 5810 5809 5808 5808 5807 5806 5805 5804 5803 5802 5801 5799 5798 5797 5796 5795 5793 5791 5790 5789 5787 5786 5784 5783 5781 5780 5779 5777 5776 5775 5773 5772
5808 5808 5808 5808 5809 5809 5809 5808 5808 5808 5807 5807 5806 5805 5805 5804 5803 5802 5800 5799 5798 5796 5795 5794 5792 5791 5789 5788 5786 5785 5784 5782 5781 5779 5778 5776 5775 5774 5772 5771 5769 5767
5805 5805 5806 5806 5806 5806 5806 5806 5806 5805 5805 5804 5804 5803 5802 5801 5800 5799 5797 5796 5794 5793 5792 5790 5789 5787 5785 5784 5783 5781 5780 5779 5777 5776 5774 5772 5771 5770 5768 5766 5765 5763
5803 5803 5803 5804 5804 5804 5804 5803 5803 5803 5802 5802 5801 5800 5800 5799 5797 5796 5794 5792 5791 5789 5788 5786 5785 5783 5782 5780 5779 5778 5777 5775 5774 5772 5770 5769 5767 5765 5764 5762 5760 5759
5800 5800 5800 5801 5801 5801 5801 5801 5800 5800 5800 5799 5798 5797 5797 5795 5794 5792 5790 5789 5787 5786 5784 5783 5781 5779 5778 5776 5775 5774 5772 5771 5769 5768 5766 5764 5763 5761 5759 5757 5756 5754
5798 5798 5798 5798 5798 5798 5798 5797 5797 5796 5796 5796 5795 5794 5793 5792 5790 5789 5787 5785 5784 5782 5781 5779 5777 5776 5774 5772 5771 5769 5768 5766 5765 5763 5761 5760 5758 5756 5755 5753 5751 5749
5795 5795 5795 5795 5795 5795 5794 5794 5794 5793 5793 5792 5791 5790 5789 5788 5786 5785 5783 5782 5780 5778 5777 5775 5773 5772 5770 5768 5767 5765 5764 5762 5760 5759 5757 5755 5753 5751 5749 5748 5746 5744
5792 5792 5792 5792 5792 5792 5791 5791 5790 5790 5789 5789 5788 5786 5785 5784 5782 5781 5779 5778 5776 5774 5772 5771 5769 5767 5766 5764 5762 5761 5759 5757 5755 5754 5752 5750 5748 5746 5744 5742 5741 5739
5790 5790 5790 5789 5789 5788 5788 5788 5787 5787 5786 5785 5784 5783 5781 5780 5778 5777 5775 5773 5772 5770 5768 5767 5765 5763 5761 5760 5758 5756 5754 5753 5751 5749 5747 5745 5743 5741 5739 5737 5735 5734
5787 5787 5787 5786 5786 5785 5785 5785 5784 5784 5783 5782 5780 5779 5777 5776 5774 5773 5771 5770 5768 5766 5765 5763 5761 5759 5757 5755 5754 5752 5750 5748 5746 5744 5742 5740 5738 5736 5734 5732 5730 5728
5784 5784 5784 5783 5783 5782 5782 5782 5781 5780 5779 5778 5777 5775 5774 5772 5771 5769 5768 5766 5764 5763 5761 5759 5757 5755 5753 5751 5749 5747 5745 5743 5740 5738 5736 5734 5732 5730 5728 5726 5724 5722
5781 5781 5780 5780 5780 5779 5779 5778 5778 5777 5776 5775 5773 5772 5770 5768 5767 5766 5764 5762 5760 5759 5757 5755 5753 5750 5749 5746 5744 5742 5740 5738 5735 5733 5730 5728 5726 5724 5721 5719 5717 5715
5778 5777 5777 5777 5776 5776 5776 5775 5774 5773 5772 5771 5769 5768 5766 5765 5763 5762 5760 5758 5756 5754 5752 5750 5748 5746 5744 5741 5739 5737 5735 5732 5729 5727 5724 5722 5720 5717 5715 5713 5711 5708
5774 5774 5774 5773 5773 5773 5772 5771 5770 5769 5768 5767 5766 5764 5762 5761 5760 5758 5756 5754 5752 5750 5748 5746 5744 5742 5739 5737 5734 5732 5730 5727 5724 5722 5719 5717 5714 5711 5709 5707 5704 5702
5771 5770 5770 5770 5769 5769 5768 5768 5767 5766 5765 5763 5762 5760 5759 5757 5756 5754 5752 5750 5748 5746 5744 5742 5739 5737 5734 5732 5730 5727 5725 5722 5719 5717 5714 5711 5709 5706 5703 5701 5698 5696
5767 5767 5766 5766 5766 5765 5765 5764 5763 5762 5761 5760 5758 5757 5755 5753 5751 5749 5747 5745 5743 5741 5739 5737 5735 5732 5729 5727 5724 5721 5719 5716 5714 5711 5708 5706 5703 5700 5698 5695 5692 5690
5763 5763 5763 5762 5762 5762 5761 5760 5759 5759 5757 5756 5754 5753 5751 5749 5747 5745 5743 5741 5739 5737 5735 5732 5730 5727 5724 5722 5719 5716 5713 5711 5708 5705 5703 5700 5697 5695 5692 5689 5686 5683
5759 5759 5759 5759 5758 5758 5757 5757 5756 5755 5754 5752 5751 5749 5746 5744 5742 5740 5738 5736 5734 5732 5730 5727 5725 5722 5719 5716 5713 5711 5708 5705 5702 5700 5697 5694 5691 5688 5686 5683 5679 5676
5755 5755 5755 5755 5754 5754 5753 5753 5752 5751 5750 5748 5746 5744 5742 5740 5738 5736 5734 5732 5730 5727 5725 5723 5720 5717 5714 5711 5708 5705 5703 5700 5697 5694 5691 5688 5685 5682 5679 5675 5672 5669
5750 5750 5750 5750 5750 5750 5749 5749 5748 5747 5746 5744 5742 5740 5738 5736 5734 5732 5730 5728 5725 5723 5721 5718 5715 5712 5710 5707 5704 5701 5698 5695 5692 5688 5685 5681 5678 5675 5672 5669 5665 5662
5745 5745 5746 5746 5746 5746 5746 5745 5744 5743 5742 5740 5738 5736 5734 5732 5730 5728 5725 5723 5721 5719 5716 5714 5711 5708 5705 5702 5699 5696 5693 5690 5687 5683 5680 5676 5673 5669 5666 5662 5659 5656
5741 5742 5742 5742 5743 5742 5742 5741 5740 5739 5738 5736 5734 5732 5730 5728 5726 5724 5721 5719 5717 5715 5712 5710 5707 5705 5702 5699 5696 5692 5689 5686 5683 5679 5675 5672 5668 5664 5661 5657 5653 5649
5739 5740 5740 5740 5739 5739 5738 5737 5736 5735 5734 5732 5730 5728 5726 5724 5722 5720 5718 5715 5713 5711 5709 5706 5704 5701 5698 5695 5692 5689 5686 5682 5679 5675 5671 5668 5664 5660 5656 5652 5648 5643
5737 5737 5737 5736 5735 5735 5734 5734 5732 5731 5729 5728 5726 5724 5723 5721 5718 5716 5714 5712 5709 5707 5705 5703 5700 5697 5695 5692 5688 5685 5682 5679 5675 5672 5668 5664 5660 5656 5652 5648 5643 5639
5734 5733 5733 5733 5732 5732 5731 5730 5728 5727 5725 5724 5722 5720 5719 5717 5714 5712 5710 5708 5706 5704 5702 5699 5697 5694 5691 5688 5685 5682 5679 5675 5672 5668 5664 5661 5657 5652 5648 5644 5639 5635